Weather reports worldwide

Advertisment
Kyritz, Germany (10267): temperature & dewpoint: 11.06.2019 20:00:00 - 17.06.2019 20:00:00 (CEST)Kyritz, Germany (10267): temperature 5cm & temperature -5cm: 11.06.2019 20:00:00 - 17.06.2019 20:00:00 (CEST)Kyritz, Germany (10267): temperature -20cm & temperature -100cm: 11.06.2019 20:00:00 - 17.06.2019 20:00:00 (CEST)Kyritz, Germany (10267): wind speed & gusts: 11.06.2019 20:00:00 - 17.06.2019 20:00:00 (CEST)Kyritz, Germany (10267): wind direction: 11.06.2019 20:00:00 - 17.06.2019 20:00:00 (CEST)Kyritz, Germany (10267): reduced air pressure: 11.06.2019 20:00:00 - 17.06.2019 20:00:00 (CEST)Kyritz, Germany (10267): visibility: 11.06.2019 20:00:00 - 17.06.2019 20:00:00 (CEST)Kyritz, Germany (10267): sunshine duration: 11.06.2019 20:00:00 - 17.06.2019 20:00:00 (CEST)Kyritz, Germany (10267): precipitation: 11.06.2019 20:00:00 - 17.06.2019 20:00:00 (CEST)
Date & Time tt [°C] td [°C] tt 5cm [°C] tt -5cm [°C] tt -20cm [°C] tt -100cm [°C] ff [km/h] ff [kn] fx [km/h] fx [kn] dd ppp [hPa] vv [km] sd [min] rr [mm]
17.06.2019 20:00:00 - - - - - - - - - - - - - - -
17.06.2019 19:00:00 25,9 11,2 26,9 31,5 25,6 17,5 10 6 19 10 E 1019,8 70 55 0,0
17.06.2019 18:00:00 26,3 9,9 29,0 33,0 25,2 17,5 4 2 19 10 N 1020,1 70 55 0,0
17.06.2019 17:00:00 26,1 10,4 30,2 33,6 24,6 17,6 9 5 19 10 NNW 1020,5 64 60 0,0
17.06.2019 16:00:00 26,2 11,1 30,6 32,9 24,0 17,6 5 3 16 8 WNW 1021,0 54 60 0,0
17.06.2019 15:00:00 25,5 11,2 29,3 32,3 23,3 17,6 5 3 17 9 NNE 1021,3 58 60 0,0
17.06.2019 14:00:00 24,5 11,9 28,4 31,8 22,5 17,6 10 6 18 10 NNE 1021,6 52 60 0,0
17.06.2019 13:00:00 24,2 11,1 29,0 30,6 21,6 17,6 8 4 19 11 SW 1021,9 45 60 0,0
17.06.2019 12:00:00 23,0 10,8 28,5 29,5 20,8 17,6 6 3 13 7 WNW 1022,2 43 60 0,0
17.06.2019 11:00:00 22,4 12,3 27,0 27,3 20,0 17,6 6 3 13 7 S 1022,6 35 60 0,0
17.06.2019 10:00:00 21,2 13,7 25,7 24,6 19,4 17,6 6 3 11 6 SSE 1022,8 33 60 0,0
17.06.2019 09:00:00 19,8 14,4 24,1 21,8 19,0 17,6 3 2 11 6 SW 1022,8 28 60 0,0
17.06.2019 08:00:00 18,9 14,3 20,9 19,2 19,0 17,6 3 2 6 4 SW 1022,6 25 60 0,0
17.06.2019 07:00:00 17,0 13,7 18,2 17,2 19,1 17,6 2 1 5 3 SSE 1022,7 17 60 0,0
17.06.2019 06:00:00 14,5 13,4 14,0 16,2 19,4 17,6 2 1 4 2 SE 1022,3 7 27 0,0
17.06.2019 05:00:00 13,6 13,0 12,2 16,5 19,8 17,6 0 0 6 4 N 1021,8 6 0 0,0
17.06.2019 04:00:00 14,4 13,6 13,0 17,4 20,1 17,6 3 2 5 3 ESE 1022,0 11 0 0,0
17.06.2019 03:00:00 15,6 14,3 15,0 18,0 20,3 17,6 0 0 5 3 N 1022,1 20 0 0,0
17.06.2019 02:00:00 15,7 14,6 15,2 18,3 20,6 17,6 2 1 6 3 S 1022,0 14 0 0,0
17.06.2019 01:00:00 17,1 14,2 16,0 18,9 20,9 17,6 2 1 8 4 W 1021,6 29 0 0,0
17.06.2019 00:00:00 17,2 14,4 16,6 19,3 21,2 17,6 6 4 9 5 WSW 1021,5 30 0 0,0
16.06.2019 23:00:00 18,0 14,0 17,2 19,9 21,5 17,6 4 2 7 4 SW 1021,3 49 0 0,0
16.06.2019 22:00:00 18,3 14,6 17,7 20,5 21,8 17,6 5 3 13 7 SW 1021,3 35 0 0,0
16.06.2019 21:00:00 19,3 13,4 19,0 21,3 22,1 17,6 8 5 17 9 WSW 1020,8 64 1 0,0
16.06.2019 20:00:00 20,3 13,0 20,3 22,5 22,2 17,6 10 6 14 8 SSW 1020,6 70 0 0,0
16.06.2019 19:00:00 20,7 12,4 21,2 23,8 22,2 17,6 10 5 13 7 SSW 1020,6 70 0 0,0
16.06.2019 18:00:00 21,1 12,2 21,9 25,6 22,0 17,7 13 7 21 11 SW 1020,6 70 23 0,0
16.06.2019 17:00:00 22,1 12,0 24,0 26,8 21,6 17,7 4 2 16 8 NNE 1020,8 70 53 0,0
16.06.2019 16:00:00 21,4 10,3 24,3 24,6 21,4 17,7 8 4 14 8 W 1021,0 70 12 0,0
16.06.2019 15:00:00 19,7 10,7 21,1 22,9 21,4 17,7 9 5 14 7 W 1020,9 70 0 0,0
16.06.2019 14:00:00 19,5 12,3 19,6 23,0 21,3 17,7 8 4 18 10 W 1020,8 32 0 0,0
16.06.2019 13:00:00 20,2 11,0 21,5 24,6 20,9 17,7 11 6 21 12 W 1020,4 70 6 0,0
16.06.2019 12:00:00 20,6 11,1 24,3 26,5 20,2 17,7 14 7 25 13 W 1019,8 70 60 0,0
16.06.2019 11:00:00 20,6 12,1 25,5 24,9 19,5 17,7 13 7 23 12 W 1019,6 39 60 0,0
16.06.2019 10:00:00 19,0 12,3 23,7 22,2 19,1 17,7 6 3 18 10 W 1019,5 57 60 0,0
16.06.2019 09:00:00 17,1 11,2 20,2 19,4 19,0 17,7 10 5 22 12 N 1018,8 70 60 0,0
16.06.2019 08:00:00 16,1 11,6 18,0 18,1 19,0 17,7 9 5 21 12 NNW 1018,6 65 60 0,0
16.06.2019 07:00:00 14,6 11,4 15,6 16,2 19,2 17,6 8 5 18 10 WNW 1018,2 60 44 0,0
16.06.2019 06:00:00 13,9 11,5 14,8 15,9 19,5 17,6 8 4 17 9 W 1017,7 52 24 0,0
16.06.2019 05:00:00 14,2 12,0 13,7 15,9 19,9 17,6 5 3 19 10 WNW 1017,1 60 0 0,0
16.06.2019 04:00:00 14,3 11,9 13,2 16,1 20,4 17,6 11 6 24 13 WNW 1016,4 64 0 0,0
16.06.2019 03:00:00 14,9 12,3 13,7 16,6 20,8 17,6 12 6 22 12 WNW 1016,5 64 0 0,0
16.06.2019 02:00:00 15,7 12,5 14,5 17,2 21,3 17,6 11 6 27 15 W 1016,2 70 0 0,0
16.06.2019 01:00:00 16,8 12,7 15,7 17,9 21,8 17,6 13 7 37 20 WNW 1015,5 70 0 0,0
16.06.2019 00:00:00 18,0 12,7 17,1 18,8 22,4 17,6 24 13 39 21 W 1014,8 70 0 0,0
15.06.2019 23:00:00 19,0 13,7 17,8 19,7 22,9 17,6 15 8 41 22 W 1014,7 70 0 0,0
15.06.2019 22:00:00 20,5 13,6 19,7 20,8 23,4 17,6 29 15 50 27 W 1013,5 70 11 0,0
15.06.2019 21:00:00 22,4 14,4 21,5 22,0 23,9 17,6 21 12 40 22 W 1011,9 70 60 0,0
15.06.2019 20:00:00 23,9 13,9 23,0 23,8 24,2 17,6 25 14 49 26 W 1011,3 61 60 0,0
15.06.2019 19:00:00 24,8 15,4 25,1 26,0 24,3 17,6 23 12 46 25 W 1011,4 27 52 0,0
15.06.2019 18:00:00 25,2 15,8 26,3 27,0 24,3 17,6 28 15 56 30 W 1011,3 23 31 0,0
15.06.2019 17:00:00 26,5 17,6 28,1 29,4 24,0 17,6 28 15 57 31 WSW 1009,8 22 57 0,0
15.06.2019 16:00:00 28,8 18,9 31,1 29,9 23,4 17,6 27 15 49 26 WSW 1008,7 19 45 0,0
15.06.2019 15:00:00 30,1 19,3 32,4 30,7 22,7 17,6 14 8 28 15 SW 1008,3 18 38 0,0
15.06.2019 14:00:00 29,6 19,7 33,1 29,6 22,0 17,6 12 6 31 17 S 1008,1 20 39 0,0
15.06.2019 13:00:00 28,7 20,1 31,8 27,9 21,3 17,6 16 8 34 18 S 1008,2 19 47 0,0
15.06.2019 12:00:00 26,6 19,4 28,3 24,3 21,0 17,6 18 10 33 18 SE 1007,8 26 2 0,0
15.06.2019 11:00:00 24,9 19,1 25,7 23,1 20,8 17,6 23 12 42 23 ESE 1008,4 23 3 0,0
15.06.2019 10:00:00 24,1 18,8 24,6 22,3 20,6 17,6 21 11 37 20 ESE 1009,0 21 2 0,0
15.06.2019 09:00:00 23,6 18,2 24,5 21,2 20,5 17,6 24 13 41 22 E 1008,9 23 3 0,0
15.06.2019 08:00:00 22,6 17,2 22,3 20,4 20,5 17,6 22 12 45 24 E 1009,3 23 11 0,0
15.06.2019 07:00:00 22,7 16,6 22,6 19,7 20,6 17,6 24 13 39 21 E 1010,4 23 3 0,0
15.06.2019 06:00:00 22,0 15,7 21,3 19,2 20,9 17,6 27 14 43 23 E 1010,6 28 0 0,0
15.06.2019 05:00:00 21,7 15,3 20,9 19,2 21,1 17,6 24 13 33 18 E 1011,6 31 0 0,0
15.06.2019 04:00:00 21,6 14,9 20,4 19,4 21,4 17,6 21 11 28 15 E 1012,5 33 0 0,0
15.06.2019 03:00:00 22,1 15,0 20,9 19,8 21,6 17,6 18 10 28 15 E 1013,6 38 0 0,0
15.06.2019 02:00:00 22,2 15,1 21,1 20,1 21,9 17,6 18 10 23 13 E 1014,3 39 0 0,0
15.06.2019 01:00:00 22,2 15,5 21,2 20,5 22,2 17,6 16 9 24 13 E 1014,8 40 0 0,0
15.06.2019 00:00:00 21,6 15,9 20,5 20,9 22,5 17,6 15 8 39 21 E 1015,5 40 0 0,0
14.06.2019 23:00:00 23,5 15,3 22,3 21,2 22,9 17,6 17 9 29 16 ESE 1015,9 38 0 0,0
14.06.2019 22:00:00 23,9 15,2 22,6 21,8 23,3 17,6 18 10 32 17 E 1015,3 39 0 0,0
14.06.2019 21:00:00 24,5 14,4 23,2 22,9 23,6 17,6 18 10 27 15 E 1015,2 51 0 0,0
14.06.2019 20:00:00 24,9 14,3 23,5 24,1 23,8 17,6 11 6 19 10 E 1015,5 70 1 0,0
14.06.2019 19:00:00 26,5 13,0 25,9 25,1 24,0 17,6 13 7 19 10 ESE 1015,7 70 5 0,0
14.06.2019 18:00:00 27,0 10,9 26,3 25,8 24,1 17,6 16 9 31 17 ESE 1016,1 70 1 0,0
14.06.2019 17:00:00 28,2 10,4 28,1 27,5 23,9 17,7 19 10 34 18 ESE 1016,4 69 49 0,0
14.06.2019 16:00:00 28,9 10,0 30,1 29,2 23,6 17,7 22 12 40 22 ESE 1016,8 50 60 0,0
14.06.2019 15:00:00 29,0 12,3 31,0 29,8 23,0 17,7 22 12 38 20 SE 1017,1 24 60 0,0
14.06.2019 14:00:00 28,0 13,4 30,6 29,9 22,3 17,7 20 11 37 20 SE 1017,6 29 60 0,0
14.06.2019 13:00:00 27,0 11,6 29,9 29,4 21,5 17,7 22 12 33 18 SSE 1018,1 36 60 0,0
14.06.2019 12:00:00 25,7 12,7 28,8 28,0 20,8 17,7 21 12 30 16 ESE 1018,3 26 60 0,0
14.06.2019 11:00:00 24,4 13,8 28,4 26,1 20,0 17,7 16 9 23 13 ESE 1018,8 46 60 0,0
14.06.2019 10:00:00 22,1 14,7 25,7 24,0 19,5 17,7 12 7 21 11 ESE 1019,1 52 60 0,0
14.06.2019 09:00:00 19,4 13,9 22,8 21,1 19,1 17,7 14 8 21 11 SE 1018,8 29 60 0,0
14.06.2019 08:00:00 17,5 12,9 18,8 18,6 19,1 17,7 11 6 18 10 ESE 1018,6 47 59 0,0
14.06.2019 07:00:00 14,9 12,3 15,4 16,7 19,3 17,7 7 4 16 9 SE 1018,6 35 60 0,0
14.06.2019 06:00:00 13,6 12,2 13,3 15,6 19,7 17,7 8 5 12 6 ESE 1018,0 47 41 0,0
14.06.2019 05:00:00 12,4 11,9 11,5 15,7 20,2 17,7 9 5 13 7 ESE 1017,7 28 0 0,0
14.06.2019 04:00:00 12,0 11,6 11,0 16,3 20,6 17,7 6 3 9 5 ESE 1017,3 25 0 0,0
14.06.2019 03:00:00 12,6 11,9 11,6 16,8 21,1 17,7 3 2 8 4 E 1017,2 45 0 0,0
14.06.2019 02:00:00 12,8 11,9 12,0 17,5 21,7 17,7 3 2 13 7 E 1017,2 51 0 0,0
14.06.2019 01:00:00 13,9 12,4 12,9 18,3 22,2 17,7 8 4 44 24 ENE 1016,8 68 0 0,3
14.06.2019 00:00:00 14,4 13,7 14,7 19,1 22,8 17,7 5 3 34 18 E 1016,6 39 0 2,0
13.06.2019 23:00:00 13,5 12,7 13,4 20,0 23,4 17,7 26 14 65 35 WSW 1017,6 2,4 0 6,4
13.06.2019 22:00:00 19,9 14,6 18,5 21,8 23,9 17,7 17 9 21 11 ESE 1014,0 59 0 0,0
13.06.2019 21:00:00 20,8 15,0 19,1 23,4 24,3 17,7 12 6 19 10 SE 1013,8 65 5 0,0
13.06.2019 20:00:00 23,5 12,7 22,4 25,4 24,5 17,7 13 7 20 11 ESE 1013,3 66 40 0,0
13.06.2019 19:00:00 24,5 10,6 24,0 27,9 24,4 17,7 10 5 20 11 SSE 1013,4 70 54 0,0
13.06.2019 18:00:00 24,8 10,0 25,0 28,6 24,2 17,7 10 5 21 11 S 1013,6 70 36 0,0
13.06.2019 17:00:00 25,1 10,1 26,9 29,8 23,9 17,7 12 6 25 13 SSW 1013,7 70 56 0,0
13.06.2019 16:00:00 25,7 10,4 28,3 29,0 23,5 17,8 15 8 27 15 S 1014,1 66 34 0,0
13.06.2019 15:00:00 24,3 11,1 26,3 29,6 22,9 17,8 14 8 31 17 S 1014,2 70 35 0,0
13.06.2019 14:00:00 24,4 12,0 28,1 30,5 22,1 17,8 13 7 31 17 SE 1014,1 45 60 0,0
13.06.2019 13:00:00 23,6 11,8 27,8 28,6 21,3 17,8 6 3 24 13 SSW 1014,4 70 54 0,0
13.06.2019 12:00:00 22,8 11,8 27,1 27,0 20,6 17,8 9 5 25 14 S 1014,6 59 50 0,0
13.06.2019 11:00:00 21,2 13,0 26,1 24,8 20,0 17,8 10 5 18 10 S 1014,9 45 51 0,0
13.06.2019 10:00:00 19,4 14,1 24,1 22,1 19,6 17,8 13 7 20 11 S 1014,8 57 24 0,0
13.06.2019 09:00:00 17,3 14,9 18,8 20,0 19,5 17,8 11 6 16 8 SSE 1015,0 35 18 0,0
13.06.2019 08:00:00 15,8 14,2 15,8 18,2 19,6 17,8 6 4 11 6 S 1014,6 19 5 0,0
13.06.2019 07:00:00 14,8 13,9 15,0 17,3 19,8 17,8 3 2 6 3 ESE 1014,0 14 0 0,0
13.06.2019 06:00:00 14,2 13,5 14,2 17,0 20,1 17,7 7 4 11 6 SW 1013,9 16 0 0,0
13.06.2019 05:00:00 14,0 13,0 13,7 17,0 20,4 17,7 3 2 9 5 SSW 1013,4 15 0 0,0
13.06.2019 04:00:00 13,9 13,2 13,9 17,2 20,8 17,7 3 2 16 9 SSW 1012,9 7 0 0,0
13.06.2019 03:00:00 13,8 13,0 13,5 17,2 21,3 17,7 6 3 18 10 SW 1012,6 11 0 0,0
13.06.2019 02:00:00 14,1 12,8 13,5 17,7 21,8 17,7 6 4 16 9 WSW 1012,4 12 0 0,0
13.06.2019 01:00:00 14,8 12,9 13,7 18,4 22,3 17,7 11 6 29 16 W 1012,1 23 0 0,0
13.06.2019 00:00:00 16,8 15,3 16,2 19,6 22,7 17,7 15 8 27 14 WSW 1011,3 28 0 0,0
12.06.2019 23:00:00 17,1 16,3 16,8 20,3 23,2 17,7 10 5 18 10 WSW 1010,7 20 0 0,2
12.06.2019 22:00:00 17,2 16,6 17,0 20,9 23,7 17,7 8 4 14 7 SW 1010,6 15 0 0,5
12.06.2019 21:00:00 17,3 16,2 17,1 21,2 24,3 17,7 7 4 25 13 NW 1008,8 32 0 0,0
12.06.2019 20:00:00 17,7 16,0 17,0 21,8 25,1 17,7 16 8 27 15 NNW 1008,7 13 0 4,5
12.06.2019 19:00:00 18,8 17,0 18,0 22,8 25,9 17,7 30 16 63 34 SW 1010,2 12 0 10,8
12.06.2019 18:00:00 17,3 17,0 16,9 27,0 26,1 17,7 36 20 102 55 W 1007,4 0,3 0 13,4
12.06.2019 17:00:00 29,5 18,9 29,4 32,1 25,7 17,7 11 6 25 14 SSW 1004,4 25 47 0,0
12.06.2019 16:00:00 30,6 20,0 34,3 32,5 25,1 17,7 17 9 27 15 ESE 1005,3 25 59 0,0
12.06.2019 15:00:00 28,9 19,7 33,2 31,8 24,5 17,7 18 10 32 17 ESE 1005,8 20 60 0,0
12.06.2019 14:00:00 27,7 19,0 32,2 31,1 23,8 17,7 18 10 31 17 ESE 1006,5 26 59 0,0
12.06.2019 13:00:00 25,8 18,2 30,7 29,8 23,1 17,7 14 8 26 14 ENE 1007,0 21 59 0,0
12.06.2019 12:00:00 24,8 17,7 29,4 27,8 22,6 17,7 12 7 24 13 ENE 1007,7 39 58 0,0
12.06.2019 11:00:00 23,2 17,5 27,0 26,3 22,2 17,7 15 8 25 14 ENE 1008,3 30 60 0,0
12.06.2019 10:00:00 22,0 17,8 25,3 24,8 21,9 17,6 12 6 21 11 NE 1008,4 32 47 0,0
12.06.2019 09:00:00 21,0 17,9 23,8 22,5 21,8 17,6 10 5 16 8 E 1008,7 31 7 0,0
12.06.2019 08:00:00 19,5 17,5 20,5 21,4 21,9 17,6 11 6 17 9 E 1008,6 28 4 0,0
12.06.2019 07:00:00 17,9 17,2 18,5 20,0 22,2 17,6 9 5 15 8 E 1008,7 8 0 0,0
12.06.2019 06:00:00 17,5 16,7 17,3 19,7 22,6 17,6 7 4 16 9 NNE 1008,6 9 0 0,0
12.06.2019 05:00:00 17,9 16,8 17,3 20,0 23,0 17,6 12 7 21 11 NNW 1008,9 13 0 0,0
12.06.2019 04:00:00 17,8 17,0 17,5 20,4 23,5 17,6 13 7 32 17 W 1010,0 17 0 2,5
12.06.2019 03:00:00 18,3 17,6 18,2 21,1 24,1 17,5 18 10 25 13 WNW 1011,8 2,6 0 0,8
12.06.2019 02:00:00 18,3 17,2 18,0 21,7 24,7 17,5 13 7 24 13 N 1009,6 13 0 3,0
12.06.2019 01:00:00 18,9 17,9 18,7 22,6 25,3 17,5 12 6 28 15 ENE 1011,7 3,7 0 0,4
12.06.2019 00:00:00 19,5 18,4 19,2 23,4 25,9 17,5 16 9 37 20 N 1009,8 9 0 8,5
11.06.2019 23:00:00 20,2 18,7 19,9 26,3 26,3 17,5 25 14 50 27 E 1010,9 0,7 0 1,3
11.06.2019 22:00:00 23,0 17,4 22,8 27,3 26,6 17,5 14 8 28 15 N 1010,1 23 0 0,0
11.06.2019 21:00:00 24,0 16,5 23,4 28,6 26,9 17,5 14 7 22 12 N 1009,9 36 38 0,0
11.06.2019 20:00:00 25,0 16,3 24,9 30,4 27,0 17,5 12 7 22 12 NW 1010,6 35 22 0,0

tt = temperature
td = dewpoint
tt 5cm = temperature 5cm
tt -5cm = temperature -5cm
tt -20cm = temperature -20cm
tt -100cm = temperature -100cm
ff = wind speed
fx = gusts
dd = wind direction
ppp = reduced air pressure
vv = visibility
sd = sunshine duration
rr = precipitation

Next stations